Location: Newark
(13.6797°N, 8.5297°E)
Time: 15:00:30
(UTC+00:00)

Courier 1B Rocket - Pass Details

Date: 23 January 2020
Orbit: 920 x 1202 km, 28.2° (Epoch: 22 February)

Event Time Altitude Azimuth Distance (km) Brightness Sun altitude
Rises 16:39:37 0° 302° (WNW) 3,604 8.5 8.7°
Reaches altitude 10° 16:42:23 10° 308° (NW) 2,634 7.7 8.1°
Maximum altitude 16:48:25 47° 21° (NNE) 1,190 5.3 6.7°
Drops below altitude 10° 16:54:23 10° 95° (E) 2,608 6.7 5.3°
Sets 16:57:06 0° 101° (E) 3,565 7.4 4.7°
